Weather History for Port Angeles, WA

Change the Weather History Date:

Wednesday, July 24, 2013

  Actual Average Record
Temperature  
Mean Temperature 58 °F -  
Max Temperature 66 °F 69 °F 86 °F (1991)
Min Temperature 51 °F 51 °F 45 °F (1954)
Degree Days  
Heating Degree Days 6    
Growing Degree Days 8 (Base 50)    
Moisture  
Dew Point 51 °F    
Average Humidity 88    
Maximum Humidity 100    
Minimum Humidity 65    
Precipitation  
Precipitation 0.00 in - - ()
Sea Level Pressure  
Sea Level Pressure 30.06 in    
Wind  
Wind Speed 9 mph (WNW)    
Max Wind Speed 14 mph    
Max Gust Speed -    
Visibility 6 miles    
Events Fog    
Averages and records for this station are not official NWS values.
T = Trace of Precipitation, MM = Missing Value Source: NWS Daily Summary

Daily Weather History Graph

Daily Weather History Graph

Search for Another Location

Airport:

Trip Planner

Search our weather history database for the weather conditions in past years. The results will help you decide how hot, cold, wet, or windy it might be!

Date:

Astronomy

Jul. 24, 2013 Rise Set
Actual Time 5:40 AM PDT 9:00 PM PDT
Civil Twilight 5:02 AM PDT 9:37 PM PDT
Nautical Twilight 4:12 AM PDT 10:27 PM PDT
Astronomical Twilight 3:07 AM PDT 11:31 PM PDT
Moon 9:50 PM PDT (7/24) 8:22 AM PDT (7/24)
Length of Visible Light 16h 35m
Length of Day
15h 19m
Waning Gibbous, 94% of the Moon is Illuminated
Jul 24
Waning Gibbous
Jul 29
Last Quarter
Aug 6
New
Aug 14
First Quarter
Aug 20
Full

Hourly Weather History & Observations

Time (PDT) Temp. Dew Point Humidity Pressure Visibility Wind Dir Wind Speed Gust Speed Precip Events Conditions
12:53 AM 55.0 °F 50.0 °F 83% 30.04 in 10.0 mi WNW 12.7 mph - N/A   Clear
1:53 AM 54.0 °F 50.0 °F 86% 30.04 in 10.0 mi WNW 13.8 mph - N/A   Clear
2:53 AM 52.0 °F 50.0 °F 93% 30.04 in 10.0 mi NW 11.5 mph - N/A   Partly Cloudy
3:07 AM 52.0 °F 50.0 °F 93% 30.04 in 2.5 mi NW 6.9 mph - N/A   Mostly Cloudy
3:22 AM 52.0 °F 50.0 °F 93% 30.05 in 2.5 mi WNW 8.1 mph - N/A   Overcast
3:34 AM 51.1 °F 50.0 °F 96% 30.05 in 0.8 mi WNW 9.2 mph - N/A   Overcast
3:44 AM 51.1 °F 50.0 °F 96% 30.05 in 1.0 mi WNW 6.9 mph - N/A   Mist
3:53 AM 51.1 °F 50.0 °F 96% 30.05 in 2.0 mi WNW 5.8 mph - N/A   Overcast
4:10 AM 51.1 °F 50.0 °F 96% 30.05 in 1.8 mi WNW 4.6 mph - N/A   Overcast
4:17 AM 51.1 °F 50.0 °F 96% 30.05 in 2.5 mi WNW 6.9 mph - N/A   Overcast
4:31 AM 51.1 °F 50.0 °F 96% 30.06 in 1.8 mi WNW 9.2 mph - N/A   Overcast
4:48 AM 51.8 °F 50.0 °F 94% 30.06 in 1.2 mi WNW 8.1 mph - N/A   Overcast
4:53 AM 51.1 °F 50.0 °F 96% 30.06 in 1.2 mi WNW 8.1 mph - N/A   Overcast
5:14 AM 51.1 °F 50.0 °F 96% 30.06 in 0.8 mi WNW 8.1 mph - N/A   Mist
5:53 AM 51.1 °F 50.0 °F 96% 30.07 in 0.5 mi WNW 5.8 mph - N/A Fog Fog
6:05 AM 51.1 °F 50.0 °F 96% 30.07 in 0.2 mi WNW 6.9 mph - N/A Fog Fog
6:53 AM 51.1 °F 51.1 °F 100% 30.08 in 0.2 mi WNW 6.9 mph - N/A Fog Fog
7:53 AM 52.0 °F 51.1 °F 97% 30.08 in 0.5 mi NW 4.6 mph - N/A Fog Fog
8:15 AM 52.0 °F 51.1 °F 97% 30.08 in 1.0 mi WNW 5.8 mph - N/A   Mist
8:37 AM 52.0 °F 51.1 °F 97% 30.08 in 3.0 mi WNW 5.8 mph - N/A   Overcast
8:53 AM 53.1 °F 51.1 °F 93% 30.08 in 10.0 mi WNW 6.9 mph - N/A   Overcast
9:53 AM 55.9 °F 51.1 °F 84% 30.08 in 10.0 mi NW 8.1 mph - N/A   Mostly Cloudy
10:02 AM 57.0 °F 51.1 °F 81% 30.08 in 10.0 mi NW 9.2 mph - N/A   Scattered Clouds
10:53 AM 60.1 °F 52.0 °F 75% 30.08 in 10.0 mi NW 9.2 mph - N/A   Clear
11:53 AM 61.0 °F 53.1 °F 75% 30.08 in 10.0 mi NW 8.1 mph - N/A   Clear
12:53 PM 62.1 °F 53.1 °F 72% 30.07 in 10.0 mi NW 5.8 mph - N/A   Clear
1:53 PM 64.0 °F 53.1 °F 67% 30.07 in 10.0 mi NW 6.9 mph - N/A   Clear
2:53 PM 66.0 °F 54.0 °F 65% 30.07 in 10.0 mi NNW 6.9 mph - N/A   Clear
3:53 PM 66.0 °F 54.0 °F 65% 30.06 in 10.0 mi NW 5.8 mph - N/A   Clear
4:53 PM 64.0 °F 54.0 °F 70% 30.05 in 10.0 mi WNW 10.4 mph - N/A   Clear
5:53 PM 63.0 °F 53.1 °F 70% 30.05 in 10.0 mi Variable 5.8 mph - N/A   Clear
6:53 PM 61.0 °F 53.1 °F 75% 30.04 in 10.0 mi NW 5.8 mph - N/A   Clear
7:53 PM 55.9 °F 52.0 °F 87% 30.04 in 10.0 mi WNW 5.8 mph - N/A   Clear
8:53 PM 54.0 °F 51.1 °F 90% 30.05 in 10.0 mi NW 8.1 mph - N/A   Clear
9:03 PM 54.0 °F 51.1 °F 90% 30.05 in 10.0 mi NW 8.1 mph - N/A   Scattered Clouds
9:14 PM 54.0 °F 52.0 °F 93% 30.05 in 10.0 mi West 9.2 mph - N/A   Mostly Cloudy
9:53 PM 54.0 °F 52.0 °F 93% 30.06 in 10.0 mi West 8.1 mph - N/A   Mostly Cloudy
10:08 PM 54.0 °F 52.0 °F 93% 30.06 in 10.0 mi WNW 10.4 mph - N/A   Scattered Clouds
10:53 PM 54.0 °F 52.0 °F 93% 30.06 in 10.0 mi WNW 6.9 mph - N/A   Clear
11:53 PM 54.0 °F 52.0 °F 93% 30.05 in 10.0 mi WNW 10.4 mph - N/A   Clear